Location: Newark
(3.0500°N, 36.0167°E)
Time: 16:48:56
(UTC+00:00)

A-11 Canister half - Pass Details

Date: 29 August 2019
Orbit: 1527 x 1682 km, 47.3° (Epoch: 15 September)

Event Time Altitude Azimuth Distance (km) Brightness Sun altitude
Rises 14:37:32 0° 339° (NNW) 4,921 12.1 15.1°
Reaches altitude 10° 14:41:19 10° 350° (N) 3,927 11.5 14.2°
Maximum altitude 14:49:44 30° 47° (NE) 2,656 10.1 12.1°
Drops below altitude 10° 14:57:58 10° 104° (ESE) 3,859 10.5 10.1°
Sets 15:01:36 0° 114° (ESE) 4,824 11.0 9.2°
